User: anonymous   Login
Location: Caltech
(34.1382°N, 118.1253°W)
Time: 15:50:27
(UTC-08:00)
Language:

Cosmos 2219 Rocket - Orbit

View from above orbital plane
View from above orbital plane
View from above satellite
View from above satellite

Ground track
Ground track

The orbit data is extracted from the following two-line orbital elements,

1 22220U 92076B   18050.64108451 -.00000168 +00000-0 -60039-4 0  9994
2 22220 070.9977 258.3655 0015125 257.5453 158.5397 14.16425440305487
Epoch (UTC): 19 February 2018 15:23:09
Eccentricity: 0.0015125
inclination: 70.9977°
perigee height: 826 km
apogee height: 848 km
right ascension of ascending node: 258.3655°
argument of perigee: 257.5453°
revolutions per day: 14.16425440
mean anomaly at epoch: 158.5397°
orbit number at epoch: 30548

The dashed part of the orbit path shows where the satellite is in the earth's shadow,  

DLR